RH
86 90 94 97 100 103 105 104 102 100 101 101 101 100 100 100 101 102 101 101 100 99 97 96 100 103 104 103 103 101 96 91 88 86 83 78 74 71 70 70 69 67 65 62 60 57 53 46 37 28 23 21 20 17 12 9 8 9 11 12 12 13 13 14 13 14 19 23 21 25 35 39 43 50 55 58 59 60 60 57 56 55 54 55 57
91 94 97 100 103 104 104 102 101 100 101 100 101 101 100 100 102 104 103 102 101 100 99 99 101 104 105 105 104 101 96 93 91 88 84 80 77 76 76 75 72 69 67 65 61 56 48 38 29 25 24 21 17 12 9 9 11 12 13 13 14 15 15 18 20 19 24 29 30 34 42 44 44 48 51 53 57 62 65 66 65 64 62 61 61
96 99 101 103 104 103 101 101 101 100 100 100 101 100 101 102 104 105 105 103 101 101 101 101 101 101 103 105 105 102 99 97 94 90 86 84 83 82 79 76 74 72 69 65 59 49 38 31 27 26 24 18 12 9 10 12 12 13 14 14 15 18 20 24 27 27 30 36 39 40 44 43 41 43 45 46 49 53 58 63 65 68 70 69 68
99 101 103 104 102 101 101 101 100 100 100 101 101 100 102 104 105 105 105 102 101 100 100 101 102 101 102 106 106 103 101 99 95 91 89 89 88 84 80 77 75 73 69 61 51 40 32 29 28 25 19 12 10 11 12 13 13 13 14 15 18 23 28 32 35 37 38 39 39 39 39 38 36 35 37 37 39 43 46 51 57 62 68 70 71
101 102 103 103 101 100 100 100 101 101 100 100 100 101 103 105 104 103 102 101 100 100 100 101 101 101 103 107 107 104 102 99 95 94 95 93 89 84 80 78 76 71 62 51 41 34 32 31 27 20 13 10 12 13 13 13 13 14 15 18 24 30 35 39 43 44 41 36 34 35 38 38 35 33 34 34 33 34 36 39 43 48 54 61 66
102 103 103 102 101 100 100 100 101 100 100 101 102 103 105 105 103 101 101 100 100 100 101 101 101 101 103 107 107 105 102 99 98 100 99 94 89 85 83 79 72 63 52 42 36 34 33 29 21 13 11 12 14 14 14 14 14 15 19 25 32 38 41 45 47 44 38 33 32 36 41 43 40 37 38 39 37 35 35 35 36 37 39 44 51
102 103 102 101 101 101 101 100 100 100 101 103 104 104 104 104 102 100 100 101 100 101 102 101 101 103 104 106 107 104 101 101 103 104 100 94 90 87 83 74 63 52 42 37 36 35 30 22 14 12 13 14 15 14 14 15 16 19 25 31 38 43 45 47 46 40 36 35 36 39 43 45 43 40 40 42 42 41 41 40 39 37 34 33 35
101 102 103 102 101 102 101 100 100 102 103 104 104 104 103 102 101 101 102 102 101 102 101 101 103 106 106 106 105 103 103 105 106 104 100 96 92 85 75 63 52 43 39 38 37 32 23 16 12 14 15 15 15 15 15 17 19 24 31 36 41 44 44 43 40 37 37 38 39 42 44 45 44 42 42 43 43 43 43 43 42 41 39 35 33
102 103 103 103 103 103 101 100 102 103 103 103 103 103 104 104 103 103 103 102 101 103 103 103 105 105 105 105 104 104 106 108 107 105 102 95 86 74 62 52 45 41 40 38 33 25 17 13 14 16 16 15 16 16 18 20 23 27 34 39 40 42 40 36 34 37 41 41 42 44 44 44 45 44 44 44 44 43 42 41 40 39 40 39 38
103 104 103 104 105 103 100 102 104 104 104 103 103 103 105 105 104 105 104 103 103 104 104 104 105 105 104 103 103 106 108 108 108 106 97 85 72 61 53 47 44 41 39 34 26 18 14 15 17 17 16 16 17 18 19 22 24 29 34 38 39 38 33 29 32 38 42 42 43 43 42 42 45 47 47 47 45 43 41 40 38 36 37 37 37
103 103 103 105 104 101 101 104 105 104 104 103 103 103 104 104 105 106 105 104 103 103 104 105 105 104 103 102 104 107 108 107 105 97 83 70 59 52 48 46 43 39 34 26 19 15 15 18 19 18 17 17 18 19 19 22 25 28 31 34 35 33 29 28 33 39 41 41 41 41 40 42 46 49 50 48 46 44 42 40 37 37 36 35 34
101 101 101 103 102 102 104 105 104 103 102 102 101 102 103 104 104 103 103 103 104 103 103 104 103 102 103 105 104 103 102 99 92 80 67 59 53 49 46 42 38 33 26 20 17 17 18 19 18 18 18 18 18 19 20 22 24 25 26 27 28 28 27 28 33 38 41 40 39 39 41 44 47 52 54 52 48 44 42 39 37 36 36 35 34
96 97 99 101 102 103 103 102 102 101 100 100 101 101 102 102 102 103 103 102 102 102 104 105 105 103 99 94 88 84 84 81 74 65 58 54 51 48 42 36 29 24 18 16 18 21 22 20 18 18 19 18 18 19 20 21 22 22 23 23 23 25 27 28 32 37 40 39 37 39 43 45 47 51 55 54 49 45 42 40 36 34 33 34 34
95 97 100 102 102 102 101 100 99 98 98 98 98 99 101 101 101 102 101 101 104 106 103 97 89 79 70 63 60 62 66 66 62 58 54 50 47 43 36 29 22 18 15 14 18 23 23 20 19 19 20 20 20 20 20 21 21 21 21 22 22 24 26 28 32 37 40 39 39 42 46 47 46 48 51 53 52 50 46 41 38 38 37 37 36
98 100 101 102 102 102 100 97 96 96 96 95 95 99 101 100 100 101 101 101 96 86 72 59 49 44 43 44 47 51 57 58 55 52 48 44 41 36 29 24 19 15 15 17 19 22 22 20 19 20 20 20 23 24 23 21 21 22 22 22 23 24 25 28 32 37 40 40 40 41 45 47 46 47 50 53 56 56 52 46 45 46 44 43 41
100 100 102 102 101 99 97 96 96 95 94 95 97 99 98 99 100 98 88 74 58 43 35 31 31 35 38 41 44 48 52 51 47 44 41 37 33 28 23 20 17 16 18 20 21 21 20 19 18 19 20 20 23 26 25 23 22 23 24 24 25 25 26 28 31 35 37 38 39 39 40 42 44 45 48 52 54 55 55 53 51 50 48 46 45
100 101 102 101 99 96 95 95 94 93 94 97 96 96 97 96 86 68 49 37 29 28 28 28 31 35 38 40 41 41 42 41 38 35 33 30 26 22 19 17 17 19 21 22 21 20 19 19 18 18 20 21 23 24 25 24 24 25 26 26 27 27 28 30 32 33 34 36 38 40 42 44 46 47 49 52 54 56 57 56 55 54 51 48 46
101 102 102 100 97 95 94 93 94 95 95 94 94 94 88 72 50 34 29 29 30 29 28 28 30 32 33 33 31 29 29 31 30 27 25 24 22 19 17 17 18 21 22 22 21 19 18 19 18 19 20 21 23 24 25 25 26 27 28 28 29 30 31 32 34 34 34 36 38 40 43 46 49 50 52 55 58 62 62 58 57 55 51 48 47
102 102 100 97 94 93 92 93 95 94 92 92 91 80 60 39 30 30 32 32 30 28 26 26 25 24 22 21 19 19 20 23 24 23 22 21 20 18 17 18 20 22 22 21 19 18 18 19 19 20 21 22 23 24 25 26 27 28 30 31 32 32 33 34 35 35 35 37 38 40 42 45 49 51 55 59 63 68 70 66 61 57 53 53 54
101 99 96 94 94 93 94 95 94 91 91 88 75 52 35 31 34 35 34 32 29 25 21 18 16 15 14 14 14 15 16 18 21 21 20 20 19 18 18 19 20 21 20 19 18 18 18 19 20 21 22 22 24 25 26 28 29 30 32 34 35 34 34 36 36 36 37 38 39 41 42 45 48 51 55 60 65 70 74 73 69 65 62 61 60
97 95 94 95 96 96 96 94 91 90 86 71 49 34 32 36 36 35 34 30 24 18 14 11 10 10 10 11 13 14 15 16 18 19 19 20 20 19 19 19 20 19 18 17 17 18 18 19 20 22 23 24 25 26 28 29 31 33 35 37 37 37 38 40 40 40 42 42 42 43 44 46 50 53 57 62 67 72 75 76 76 74 71 68 64
94 95 97 98 98 96 94 91 89 85 71 49 35 34 36 36 36 35 31 23 15 11 9 7 7 9 10 11 12 14 14 15 16 18 19 19 20 20 19 18 18 16 15 16 16 17 18 19 20 22 24 25 26 27 29 31 32 35 37 38 40 41 43 46 47 47 47 47 48 49 50 52 54 57 61 66 70 74 76 78 79 78 77 74 70
97 100 100 99 97 94 90 88 84 72 52 37 34 36 37 36 37 32 22 14 10 7 6 6 7 8 9 10 12 13 14 14 15 18 19 19 19 19 17 17 16 15 14 15 16 17 18 19 21 23 24 26 27 28 29 32 34 36 38 40 42 45 48 50 51 52 54 55 56 57 58 59 61 63 67 70 72 75 78 80 81 83 83 81 76
101 101 99 97 94 90 87 84 75 58 42 35 35 37 38 38 33 23 14 9 7 6 6 6 6 7 8 10 12 12 13 14 15 16 17 17 17 17 16 16 15 14 14 14 16 17 19 20 21 23 24 26 27 29 30 32 34 37 39 41 44 48 52 54 55 57 59 60 62 63 64 65 67 68 70 72 74 77 80 83 87 90 92 90 85
101 100 98 94 89 86 83 77 65 50 39 36 38 39 39 34 23 14 9 7 6 7 6 6 6 8 8 9 11 12 13 14 15 15 15 15 15 15 15 15 15 15 15 16 17 18 19 21 22 23 25 26 27 29 31 33 35 38 40 43 46 50 54 57 58 60 62 63 66 68 70 72 73 74 74 75 77 79 82 88 94 99 103 102 96
101 99 94 89 85 82 78 69 59 48 41 40 42 42 36 25 15 9 8 8 7 7 7 7 8 8 9 10 11 12 13 13 14 14 13 14 14 15 15 15 16 17 17 18 19 20 20 22 23 24 26 27 29 31 32 35 37 40 42 45 48 52 56 58 60 62 64 67 69 71 73 75 76 77 79 80 81 83 87 91 95 99 103 104 99
99 95 89 84 82 78 72 64 55 48 44 45 44 38 27 17 10 9 9 9 9 8 8 9 9 9 11 11 12 12 14 14 15 15 15 16 16 16 17 18 18 19 20 21 22 24 25 27 27 28 30 31 33 35 36 38 40 42 44 46 49 53 57 60 63 66 68 71 73 74 76 79 81 83 85 86 87 89 90 92 93 94 95 96 93
94 89 84 81 77 73 68 61 54 50 49 47 39 29 20 13 9 10 11 11 11 11 11 11 12 13 14 14 14 15 16 16 17 18 19 20 20 21 22 23 23 25 26 28 31 34 36 36 36 37 40 42 44 46 48 49 50 51 51 52 53 57 62 65 69 72 75 77 79 81 84 87 90 92 93 93 94 94 94 93 93 92 92 90 88
89 84 80 76 73 70 64 58 54 53 50 41 31 23 16 11 10 13 15 15 15 15 14 14 15 17 19 20 21 23 22 23 25 27 29 30 33 35 36 37 39 41 43 46 50 52 53 54 53 54 55 57 59 61 61 63 64 64 65 65 66 68 72 76 79 81 84 86 88 91 93 94 96 97 98 98 99 100 99 97 96 96 95 92 91
84 80 76 73 69 65 61 57 56 52 42 32 26 20 13 10 14 18 20 21 21 21 21 21 22 24 26 28 31 33 34 35 37 40 44 47 50 53 56 58 61 64 66 68 69 70 71 73 73 73 75 76 76 77 77 77 78 79 80 81 82 84 86 88 90 93 94 95 97 98 97 97 99 100 100 101 102 102 102 102 101 101 101 99 98
80 76 73 69 66 62 59 57 52 42 32 27 24 17 11 13 20 26 28 30 29 28 29 30 31 33 36 38 39 42 46 49 52 56 61 64 65 67 69 72 74 77 80 81 81 83 87 89 89 89 90 90 90 91 92 92 92 93 93 94 94 95 96 98 99 101 102 101 99 99 100 100 101 102 101 102 103 103 103 103 104 104 105 104 103
76 73 70 66 63 60 57 51 41 31 27 27 22 14 12 19 27 33 36 38 38 38 39 39 41 43 45 45 44 45 48 54 59 63 68 72 73 73 75 79 84 88 89 86 85 89 94 96 99 101 103 103 102 101 101 101 101 100 101 101 100 100 100 101 101 101 101 101 99 100 100 101 101 102 102 103 104 105 105 104 104 106 107 106 103
73 70 66 63 61 56 48 38 30 27 28 27 19 13 16 25 34 40 43 44 45 46 47 47 47 49 50 49 47 46 49 53 55 58 62 66 68 69 71 77 86 93 94 91 92 95 96 96 97 100 103 106 106 104 103 104 103 102 103 102 101 101 101 101 101 100 99 99 100 99 99 100 101 102 103 103 103 104 104 103 104 105 105 103 101
70 66 63 61 55 46 35 28 27 29 30 24 16 13 20 31 40 45 48 51 53 55 55 53 50 49 50 51 50 51 54 57 57 59 61 62 64 67 70 76 85 93 94 94 98 101 101 100 100 101 102 104 104 104 105 104 102 102 102 101 100 101 101 100 100 100 100 100 100 99 98 99 100 100 101 101 101 100 100 100 101 102 102 101 101
68 65 62 55 44 34 28 27 29 31 29 21 14 14 24 36 45 50 53 57 59 62 63 61 56 53 53 54 55 58 61 64 66 68 70 70 71 73 76 81 88 95 98 99 100 101 100 102 104 104 104 104 104 104 105 103 101 101 101 100 100 101 101 100 100 100 101 101 100 100 100 100 100 100 100 101 100 100 100 100 99 100 101 100 100
68 65 58 46 34 28 28 29 31 32 26 17 12 16 27 40 48 53 57 59 61 64 67 67 65 62 59 59 62 67 70 73 77 80 82 83 84 85 87 90 93 97 101 104 104 103 103 103 105 105 105 104 104 104 102 100 100 100 100 100 100 100 100 100 100 100 100 100 100 100 100 100 100 100 100 100 100 100 100 100 100 100 101 100 100
68 63 52 39 31 30 30 31 33 31 22 13 12 18 30 43 52 57 60 62 63 64 67 69 69 69 67 66 67 72 77 82 86 88 90 93 95 95 94 94 94 95 98 102 103 104 105 106 107 107 105 103 102 102 101 100 100 100 100 100 101 100 100 101 101 101 101 101 101 101 100 100 101 100 100 100 100 100 100 100 100 100 100 100 100
68 60 48 37 33 32 32 32 33 28 19 12 12 19 31 45 55 61 63 65 65 65 66 69 70 71 72 73 74 77 83 90 95 98 100 102 102 101 99 97 95 94 94 96 98 100 102 105 105 105 104 102 101 100 100 100 100 100 101 101 100 100 100 100 100 100 100 100 100 100 100 101 101 100 100 100 100 100 100 100 100 100 101 100 100
68 58 47 40 37 35 33 33 33 26 17 12 12 19 32 47 59 65 67 68 68 68 69 71 72 72 73 76 78 80 86 95 101 103 104 104 103 102 101 99 98 97 96 97 98 100 102 104 105 104 103 102 100 99 100 100 100 100 100 100 100 100 101 101 101 100 100 101 101 100 101 102 101 100 100 100 99 100 101 100 100 101 101 100 100
67 58 49 44 42 39 35 34 32 26 17 12 13 20 33 49 62 69 71 72 72 73 73 74 76 76 77 78 80 82 88 96 100 99 98 98 98 98 98 98 98 99 100 102 103 104 105 106 107 106 106 105 104 103 102 102 101 101 101 100 100 100 100 100 100 99 99 100 100 99 100 100 100 100 100 100 100 101 100 100 101 101 100 101 101
67 59 53 49 46 42 38 35 32 26 17 12 13 20 34 51 65 72 76 77 77 77 78 79 80 81 81 82 84 86 89 90 89 88 87 88 89 90 91 91 92 94 96 97 96 95 94 93 93 94 95 95 96 96 96 97 97 98 99 100 101 102 102 102 102 103 103 103 102 102 103 102 102 101 101 99 100 101 100 100 101 101 100 101 101
67 61 57 54 49 44 39 36 33 26 18 13 13 20 34 52 68 77 80 81 80 81 83 84 84 85 87 89 89 88 86 82 79 78 79 80 82 83 83 85 86 86 83 78 72 66 61 58 58 58 60 61 63 65 67 69 71 72 75 78 80 83 85 87 88 89 89 90 92 94 95 97 99 101 102 103 103 102 100 100 101 100 100 101 100
69 65 62 58 51 45 41 38 32 26 19 14 14 20 33 54 73 83 85 86 86 86 86 87 89 92 94 94 90 85 80 77 76 75 76 77 78 78 80 80 78 69 58 48 41 38 36 37 40 43 47 50 53 55 56 57 59 60 61 62 63 64 65 66 66 66 66 66 67 68 70 73 76 81 88 97 102 103 101 101 101 100 101 101 99
71 68 64 58 51 47 43 37 32 26 20 15 15 20 35 57 79 89 90 91 93 92 91 91 93 94 93 89 84 80 78 77 76 77 77 77 76 77 77 72 60 45 33 27 27 31 36 42 46 49 52 54 56 59 61 62 63 64 64 65 65 65 65 65 64 63 62 61 60 60 61 61 62 65 71 81 92 100 103 102 100 100 101 100 97
72 69 63 57 53 49 43 36 30 24 20 17 17 22 39 65 88 98 99 99 100 99 98 97 95 91 86 82 79 78 78 78 78 78 77 75 75 74 69 56 38 25 21 24 31 37 41 44 45 45 46 47 49 52 56 59 61 63 64 65 65 66 67 68 68 67 66 65 64 63 62 61 62 64 67 74 84 96 103 102 100 101 100 98 96
72 68 63 58 54 49 42 35 27 22 20 19 18 26 51 82 101 106 106 107 106 105 103 99 93 88 84 81 79 78 77 77 77 76 74 73 72 67 54 36 23 19 23 30 35 38 38 36 35 35 35 37 38 41 44 48 51 53 55 57 59 61 63 65 66 67 68 68 66 65 64 64 65 67 70 76 86 97 103 102 101 100 98 96 97
73 69 65 60 55 49 41 31 23 20 20 18 21 40 72 98 106 104 103 104 106 106 104 98 91 87 84 81 80 78 77 76 75 73 71 70 67 55 37 22 18 22 29 33 34 33 30 28 28 29 30 32 33 35 37 39 41 43 45 47 49 51 53 56 60 62 64 65 64 64 64 65 68 71 75 82 92 101 104 102 100 98 96 96 99
75 71 67 62 56 49 39 26 20 20 19 20 35 66 94 104 102 100 100 101 104 106 104 98 93 90 87 84 82 79 77 76 74 70 69 67 58 41 25 18 21 27 31 32 30 27 25 25 26 27 29 31 31 32 34 35 36 37 38 39 41 43 45 48 52 55 58 60 62 63 65 68 72 76 82 90 98 104 103 100 98 97 96 98 104
77 74 70 64 57 49 35 23 18 18 18 28 57 89 103 101 99 100 101 101 105 108 105 101 97 95 91 87 84 80 77 75 72 69 67 61 46 29 19 19 25 29 31 29 26 23 23 25 27 28 29 30 31 32 32 33 33 34 35 36 38 39 41 43 46 50 54 58 62 65 69 73 78 83 90 97 103 103 100 98 96 96 98 104 111
80 77 72 66 59 48 32 21 17 17 22 45 79 101 102 99 100 101 100 101 105 108 107 105 103 100 96 90 85 80 77 74 70 68 64 53 35 21 18 23 28 30 29 25 23 23 24 26 28 29 29 30 30 30 31 31 32 33 34 35 36 38 40 42 45 50 56 62 67 72 76 80 84 90 96 102 103 101 98 96 95 98 105 113 114
83 79 73 68 61 47 30 19 16 18 34 66 95 104 100 100 102 101 100 102 104 104 106 107 106 103 99 93 85 80 76 73 69 67 59 42 25 18 21 27 30 30 27 24 22 24 26 27 28 28 29 29 29 29 30 31 31 32 34 35 37 38 40 43 49 56 63 69 74 78 82 85 89 95 100 102 100 97 95 95 99 107 114 114 108
Wind_Speed
63 63 63 63 63 63 63 64 64 65 65 66 67 67 67 67 66 67 68 69 70 71 71 72 73 73 73 72 72 73 74 75 75 75 76 78 79 80 80 81 81 81 82 83 84 85 86 88 90 91 93 93 93 93 90 85 78 73 70 68 67 66 65 64 62 58 55 56 58 58 58 59 61 63 65 67 68 71 74 77 80 82 84 86 87
63 62 63 63 63 63 64 64 64 64 65 66 66 66 66 66 66 68 69 69 70 70 71 72 73 73 72 72 73 74 74 75 75 76 77 79 80 80 81 81 81 82 82 84 85 86 87 88 90 91 92 92 91 88 81 75 70 67 66 64 62 61 60 59 58 55 51 52 54 54 53 55 57 59 61 64 66 68 70 73 76 78 81 83 84
62 62 62 63 63 63 63 63 63 64 65 65 65 65 65 66 67 68 69 69 70 70 71 72 72 72 72 72 73 74 74 75 76 77 78 80 81 81 81 81 82 82 83 84 85 87 88 89 89 90 90 89 85 78 71 67 65 63 61 60 59 57 56 55 54 52 49 48 50 51 50 51 53 56 58 60 62 64 67 69 72 75 77 79 81
62 62 63 63 63 62 62 63 63 64 65 65 64 64 65 67 68 68 69 69 70 71 71 72 71 71 72 73 73 74 74 75 77 78 80 81 81 82 82 82 82 83 84 85 86 88 88 88 88 88 87 83 76 69 64 62 61 59 58 56 55 54 53 52 50 48 47 46 47 47 47 47 49 52 54 55 57 60 62 65 68 70 74 77 79
62 62 63 63 62 62 62 63 64 64 64 64 64 65 67 68 68 68 69 70 70 71 71 71 71 71 72 73 73 74 75 76 78 80 81 82 82 82 82 82 83 84 85 86 87 88 87 86 86 84 81 74 66 62 60 58 57 56 54 53 52 51 51 49 47 45 45 44 44 44 43 43 46 48 49 51 52 55 57 59 62 66 69 73 76
62 62 63 63 62 62 63 63 63 63 63 63 65 66 67 67 68 68 69 70 70 70 70 70 71 71 72 73 73 74 76 78 80 81 82 82 82 82 83 83 84 84 85 86 87 86 85 84 82 79 72 65 60 58 56 55 53 52 51 50 50 49 49 47 45 44 43 43 42 41 41 41 42 44 45 47 48 50 51 54 56 60 63 67 71
62 63 63 62 62 62 63 63 62 62 63 64 66 67 67 67 68 69 69 70 70 69 69 70 71 71 72 73 74 75 77 80 81 82 82 82 82 83 84 84 85 85 86 86 85 84 82 80 76 70 64 59 57 55 53 52 50 49 48 48 48 48 47 45 44 42 42 41 40 40 39 39 40 41 42 43 45 46 48 50 52 55 58 61 65
63 63 63 62 62 62 62 62 61 62 64 66 67 67 67 68 68 69 69 69 69 69 69 70 71 71 72 73 75 77 79 81 82 82 83 83 83 84 85 85 86 86 86 85 83 81 78 74 68 62 58 55 53 52 50 48 47 46 46 47 47 47 46 44 42 41 41 41 40 39 39 38 38 39 40 41 42 44 46 47 49 51 53 55 58
63 63 62 62 62 61 61 61 62 64 66 66 66 67 67 68 68 69 68 68 68 69 69 70 71 72 73 75 77 79 80 81 82 83 83 83 84 85 85 86 86 86 85 82 80 77 73 67 61 56 54 52 50 48 47 46 46 45 45 46 46 46 45 43 41 41 41 41 40 40 40 38 38 38 39 40 41 42 44 46 47 48 49 51 53
63 62 61 61 61 61 61 62 64 65 66 66 67 67 68 68 68 68 67 67 68 68 69 70 71 72 75 77 79 80 81 82 82 83 84 84 85 86 86 86 86 85 82 79 76 71 65 60 55 52 51 49 47 46 45 45 45 44 45 46 46 45 44 42 40 41 42 41 41 41 40 39 38 38 38 40 41 42 43 45 45 46 47 48 50
61 61 61 61 61 61 62 63 65 66 66 66 67 67 68 68 67 67 67 67 68 68 69 70 72 74 77 78 79 80 81 82 83 84 85 85 86 86 86 86 84 82 79 75 70 64 58 53 51 49 48 47 45 44 44 44 44 44 45 45 45 45 43 41 41 42 42 42 42 42 41 40 40 39 40 41 42 42 44 45 45 45 46 47 48
61 61 61 61 61 62 63 65 65 65 66 66 67 67 67 67 66 66 66 67 67 68 70 72 74 77 78 79 80 81 82 83 84 84 85 86 87 87 87 85 82 78 73 68 63 58 53 50 48 47 46 45 44 43 43 43 44 44 45 45 44 44 43 42 42 42 42 43 43 42 42 42 42 41 41 42 43 44 45 46 46 46 46 47 47
61 61 61 61 62 63 64 65 65 65 66 66 67 67 66 66 66 66 66 66 68 70 72 74 76 77 78 79 81 81 82 83 84 85 85 85 86 86 86 83 78 73 67 60 55 52 49 47 46 45 45 44 43 43 43 43 44 44 44 44 44 44 44 44 44 43 44 44 44 43 44 45 44 43 43 44 45 45 46 47 48 47 47 47 48
61 60 61 62 63 64 64 65 65 66 66 66 66 65 65 65 64 65 66 67 70 72 74 75 77 78 80 81 82 82 83 84 84 85 85 84 84 83 82 78 73 67 61 54 49 47 46 45 45 44 44 44 43 43 44 44 44 44 44 44 44 44 45 45 45 45 46 46 45 45 46 47 46 45 45 45 45 46 47 48 48 48 48 47 48
60 61 62 63 64 64 64 65 65 65 65 65 65 64 63 63 64 65 67 69 71 72 74 76 78 80 81 82 83 83 83 84 84 84 83 81 80 78 76 72 67 61 54 49 46 44 43 43 43 43 43 43 43 44 45 45 44 44 44 44 44 45 45 45 46 47 49 49 48 47 47 48 48 47 46 46 47 48 49 49 49 49 49 49 49
61 62 63 63 64 64 64 65 65 65 64 64 63 62 62 63 65 66 68 69 71 74 76 78 80 82 83 84 84 84 83 83 82 81 79 77 74 72 69 65 60 54 49 46 45 43 42 42 42 42 42 42 42 43 45 46 45 45 44 45 45 45 45 45 47 49 51 50 49 49 48 48 48 47 47 47 49 50 50 50 50 51 51 50 50
62 63 63 63 64 64 64 64 64 64 63 62 61 62 63 64 65 67 68 71 74 77 79 81 82 83 84 84 84 82 80 79 78 76 73 71 69 67 63 58 53 49 45 44 43 42 41 41 41 41 41 41 42 43 45 46 46 45 45 45 46 46 45 46 49 51 52 51 51 51 50 49 50 49 49 49 50 51 51 50 51 52 52 51 51
63 63 63 63 63 63 64 63 63 62 61 61 61 62 63 64 65 68 71 74 77 80 82 83 84 84 84 83 82 79 75 73 72 70 67 65 64 61 57 53 48 45 43 42 41 40 40 40 41 41 41 41 42 43 45 46 46 45 45 46 47 47 47 48 51 53 53 52 52 52 52 52 52 52 51 51 51 52 53 52 52 53 52 51 51
62 62 62 63 63 63 62 62 61 60 60 61 62 62 63 64 67 71 74 78 81 83 84 85 84 83 81 79 76 72 69 66 65 64 61 60 58 56 53 48 45 43 42 40 39 39 39 39 40 41 41 42 43 44 45 46 47 46 46 47 47 46 47 50 52 53 54 54 53 54 54 54 54 54 53 52 52 53 55 55 54 53 53 52 53
62 62 62 62 62 62 61 60 60 60 61 61 61 62 64 67 71 74 78 81 83 85 85 84 82 79 76 72 69 65 63 60 59 58 56 54 53 52 49 46 43 41 40 38 38 38 38 39 40 41 42 43 43 44 46 48 48 47 47 47 46 46 48 50 52 53 54 54 55 55 55 55 55 55 54 54 55 55 56 56 55 54 54 54 55
61 61 61 61 61 60 59 59 60 61 61 61 61 63 66 70 74 78 81 84 85 84 82 79 76 73 69 65 61 59 57 55 53 52 51 50 49 48 47 43 41 39 37 36 36 37 38 39 40 41 43 44 44 45 47 48 49 49 48 47 47 48 50 51 51 52 53 53 54 55 55 55 56 56 56 56 56 56 57 57 57 56 56 56 56
61 61 60 60 59 58 59 60 61 61 61 61 62 65 69 73 77 80 83 84 83 80 77 74 70 66 61 58 54 52 51 50 49 48 47 46 45 45 43 40 38 37 35 34 35 37 38 39 40 41 43 45 46 47 47 49 50 50 49 48 49 50 52 51 51 51 51 52 53 54 55 56 57 57 57 57 57 57 58 59 58 58 58 58 58
60 59 59 58 58 58 59 61 61 61 61 62 65 68 72 76 79 82 83 81 77 73 71 67 63 58 53 50 48 46 46 46 45 44 43 43 42 41 40 38 37 36 35 34 35 37 38 39 40 42 43 45 46 48 49 50 50 51 50 51 51 52 52 52 52 52 52 53 53 54 54 55 56 57 58 58 59 59 60 60 60 60 59 59 59
58 57 57 57 58 59 60 61 61 62 63 64 67 71 74 77 80 81 78 74 70 67 64 59 54 49 46 44 42 41 41 41 41 40 40 40 39 38 37 36 36 36 35 34 35 37 38 39 41 42 44 45 47 48 49 50 51 51 52 52 53 54 54 53 54 54 54 54 54 54 54 55 56 57 58 59 60 60 61 61 61 61 61 61 60
57 56 57 58 59 60 61 61 62 63 64 66 69 72 75 77 78 76 71 66 63 60 55 50 45 42 40 38 37 37 36 36 37 38 38 37 36 36 36 36 37 37 36 36 36 38 39 40 42 43 44 45 47 48 50 50 51 52 53 54 55 56 56 55 56 56 55 55 54 54 55 56 57 58 59 60 61 61 61 62 62 62 62 61 61
55 56 57 59 60 60 61 62 62 64 65 68 70 73 75 76 73 68 62 59 56 52 48 43 40 37 36 34 33 33 33 33 34 36 36 35 35 35 36 36 37 38 38 37 38 39 40 42 43 43 44 45 47 48 49 50 52 53 55 56 57 58 58 57 57 57 56 56 56 56 57 58 58 59 60 61 61 61 61 62 62 61 62 62 62
55 57 58 59 60 61 61 62 63 64 66 69 71 73 74 72 65 59 56 54 50 47 44 40 37 35 33 32 31 31 31 32 34 35 35 35 35 35 36 37 38 39 39 40 40 41 42 43 43 44 45 46 47 48 49 50 52 54 56 58 59 59 59 58 58 58 57 57 58 58 58 59 59 60 61 61 61 61 61 61 61 61 61 62 62
56 58 59 59 60 61 61 62 63 65 67 69 71 73 71 64 57 53 52 50 47 44 42 39 37 35 33 31 30 30 30 31 34 35 35 36 36 36 37 38 39 40 41 42 43 43 43 44 44 45 46 48 49 50 51 52 53 54 56 58 59 59 60 59 59 59 58 59 59 59 60 60 60 60 61 61 61 61 61 61 61 61 61 62 62
57 58 59 60 61 61 62 63 64 65 67 69 71 70 65 57 51 50 49 48 46 44 41 39 38 36 34 32 32 31 30 31 34 35 36 37 38 38 39 39 41 42 43 44 44 44 44 44 45 46 48 50 51 52 53 54 55 55 56 58 59 60 60 61 60 60 60 60 61 61 61 61 61 61 61 61 61 61 61 61 61 61 62 62 61
58 59 59 60 61 61 62 63 64 66 68 69 70 66 58 51 48 48 47 46 45 44 42 40 39 37 35 34 34 33 32 32 34 36 38 39 41 41 41 41 42 44 45 46 47 46 46 46 47 49 50 52 52 53 54 55 56 57 57 59 60 61 61 62 62 62 62 62 62 62 63 62 61 61 61 61 61 61 60 60 61 61 61 61 61
58 59 60 60 61 62 63 63 65 67 68 69 67 60 52 48 47 47 46 45 44 44 43 41 40 39 37 35 34 34 33 32 33 36 38 40 42 43 43 43 43 44 46 47 48 48 48 49 50 51 53 54 55 55 56 57 58 59 59 60 61 62 62 62 63 63 63 63 63 63 63 63 62 61 61 60 61 60 60 60 60 60 60 60 60
58 59 60 61 61 62 63 64 66 68 69 67 62 54 47 46 47 47 46 45 44 43 43 43 42 40 39 38 36 35 34 33 33 35 37 40 42 43 44 44 45 46 48 49 49 49 49 50 51 52 54 55 56 57 59 60 60 61 62 62 63 63 63 63 64 64 64 64 63 63 63 63 62 61 61 60 60 60 59 59 59 59 60 59 58
59 59 60 60 61 62 63 66 68 69 68 64 58 49 45 44 45 45 45 45 44 43 43 43 42 41 40 39 39 38 37 37 37 37 38 40 41 43 44 45 46 48 50 52 52 52 53 53 54 54 55 56 57 58 59 60 61 61 62 63 63 63 64 64 65 64 64 64 64 64 63 63 63 62 61 60 59 59 58 58 57 58 58 58 56
59 59 60 60 61 63 65 68 69 68 65 61 53 46 43 44 44 44 44 43 42 42 42 42 43 42 41 40 40 39 39 40 40 41 42 43 44 45 46 47 48 50 53 54 54 55 56 57 57 58 58 58 59 59 60 60 61 62 62 63 63 63 64 63 64 64 64 64 64 63 63 63 63 62 61 60 59 58 57 56 56 56 56 56 55
59 59 59 60 61 64 67 68 68 66 63 57 49 44 43 43 44 43 43 42 41 41 40 41 41 42 42 42 42 41 42 42 43 44 46 47 48 48 49 50 51 52 54 56 57 58 59 59 60 61 61 61 62 62 62 62 62 62 63 63 63 64 64 63 63 63 63 63 63 63 63 62 62 62 61 59 58 57 56 55 55 54 54 54 53
59 59 59 60 62 65 67 68 66 63 60 55 47 42 42 43 43 43 42 41 40 40 39 40 40 41 42 42 43 43 44 44 45 47 48 50 51 52 52 53 54 55 56 58 59 61 62 62 62 63 63 63 64 64 64 64 63 63 63 63 63 63 63 63 63 62 63 62 62 61 62 62 61 61 61 59 57 56 55 54 53 53 52 52 51
59 59 59 60 63 66 67 67 65 62 59 52 45 41 41 42 43 42 42 41 40 40 39 39 40 41 42 43 43 44 45 46 47 49 50 52 53 54 55 56 57 58 59 60 61 62 63 64 65 65 65 65 65 65 65 65 64 64 64 64 63 63 63 63 62 62 62 62 61 61 61 61 61 60 60 59 57 55 54 53 52 51 51 50 50
59 59 59 61 63 66 67 66 64 61 57 51 43 41 41 42 42 42 41 41 40 40 40 40 40 41 42 43 44 45 46 47 49 51 53 54 56 57 58 59 60 61 61 62 64 65 65 66 67 67 67 67 66 66 66 65 65 64 64 64 63 63 63 63 63 62 62 61 61 61 61 61 60 60 59 59 57 55 53 52 51 50 49 49 48
59 59 59 61 64 66 67 66 63 60 56 49 43 40 41 41 42 42 41 41 41 40 40 41 41 42 43 44 45 46 47 48 50 52 54 55 57 58 60 61 62 64 65 66 67 68 68 69 69 69 69 68 68 67 67 66 65 65 64 64 64 63 63 63 63 62 62 61 61 61 61 60 59 59 58 57 56 54 52 51 49 48 47 47 47
59 59 60 62 64 66 66 65 62 59 55 48 42 40 41 41 41 41 41 41 41 40 41 41 42 43 44 45 46 48 48 49 51 53 54 56 58 59 61 62 64 65 67 68 69 70 71 71 71 70 70 70 69 69 68 67 67 66 65 65 64 64 63 63 63 62 62 61 61 61 60 60 59 58 57 55 54 52 51 49 48 47 46 45 45
59 60 61 63 64 65 66 65 62 59 54 48 42 40 41 41 41 41 41 41 40 40 41 41 42 44 45 46 48 49 50 51 52 54 55 57 58 60 61 63 65 67 69 70 71 72 72 72 71 71 70 70 69 69 69 68 67 66 65 64 64 63 63 63 62 62 61 61 60 60 59 59 58 56 55 54 52 50 49 47 46 45 44 43 42
60 60 62 63 65 65 66 64 61 58 54 47 43 41 41 41 41 41 41 41 41 41 41 42 43 44 46 47 48 50 51 52 54 55 56 58 59 61 63 65 68 70 71 72 73 73 72 71 70 69 68 67 67 66 66 66 65 64 63 62 61 61 60 60 60 59 59 58 57 56 56 56 55 54 52 51 49 48 46 45 44 43 42 41 40
60 61 62 64 65 65 65 63 61 58 53 47 43 42 41 41 40 40 41 41 41 41 41 42 43 44 46 47 49 50 52 53 55 56 58 59 61 63 66 68 70 72 73 73 73 72 70 69 67 66 65 64 64 63 62 62 61 60 59 58 57 56 56 55 55 54 54 53 52 51 50 50 50 49 48 47 46 45 44 43 42 41 40 39 37
61 62 63 64 65 66 65 63 60 57 53 47 43 42 42 41 40 40 40 40 40 41 41 42 43 44 45 47 49 51 53 54 56 57 59 61 63 66 69 71 72 73 73 72 70 68 67 66 65 64 63 62 61 60 59 58 57 56 55 54 53 52 51 50 50 50 49 48 47 46 46 45 45 44 43 43 43 42 41 41 40 39 38 36 35
61 62 63 65 66 66 65 63 60 57 52 47 44 42 41 41 40 40 40 40 40 41 41 42 43 44 46 47 49 51 53 55 56 58 60 63 66 69 71 73 73 73 71 69 67 66 65 65 64 63 61 60 58 57 56 54 54 53 52 50 49 48 47 47 46 46 45 44 44 43 42 42 41 40 40 39 39 39 39 38 38 37 35 34 32
62 63 64 65 66 66 65 63 60 56 51 47 43 42 41 40 40 40 39 40 40 40 41 42 43 44 46 48 50 52 54 55 57 59 62 65 68 71 72 73 72 71 68 67 66 65 65 64 62 60 58 56 54 53 51 50 49 48 47 46 45 44 43 42 42 41 41 41 40 39 39 38 38 37 36 36 36 36 36 36 35 34 33 31 29
63 64 64 65 66 66 65 63 59 55 50 46 42 40 39 39 39 39 39 39 39 39 40 41 43 44 46 48 51 53 55 57 59 61 64 68 70 72 73 72 71 68 66 66 66 65 63 61 58 55 53 51 49 47 46 44 43 42 41 40 40 39 38 38 37 37 37 36 36 36 35 35 34 33 33 33 34 34 34 34 33 32 30 28 27
63 64 65 66 66 66 64 62 58 53 48 43 40 39 38 38 38 38 38 38 38 39 40 41 43 45 47 50 52 54 56 58 60 63 66 69 71 72 72 70 68 66 65 65 65 63 60 57 54 51 48 46 43 41 40 39 37 36 36 35 34 34 33 33 33 32 32 31 31 31 31 30 30 30 30 31 32 33 33 32 31 29 27 26 25
64 64 65 66 66 65 63 60 55 50 44 40 38 37 37 37 37 37 37 37 38 39 40 42 44 46 49 51 53 55 57 59 62 65 68 71 72 72 70 68 66 65 65 64 62 59 56 52 49 46 43 41 38 37 35 34 33 32 31 30 29 29 28 28 27 27 26 26 26 26 26 27 27 27 28 29 30 31 31 29 28 26 25 24 23
64 64 65 65 66 65 62 58 52 46 41 37 36 36 36 36 36 36 37 37 38 39 41 43 45 47 50 52 54 56 58 60 63 67 69 71 71 70 68 66 64 64 64 62 59 55 52 48 45 42 39 36 34 33 31 30 29 27 26 25 24 23 23 22 22 21 22 22 22 23 23 24 25 26 27 28 29 29 29 27 26 24 23 22 22
63 64 64 65 65 64 61 55 49 42 38 35 35 35 35 35 36 36 37 38 39 41 43 45 47 49 51 53 55 57 59 62 65 68 70 70 70 68 65 64 63 63 62 59 55 51 47 44 40 37 35 33 31 29 27 26 24 23 21 20 19 18 17 17 17 17 18 19 19 20 21 22 23 25 26 27 28 28 27 25 24 23 22 22 22
Wind_Direction
298 298 298 298 299 299 298 297 296 295 294 294 294 294 294 294 295 295 296 297 297 297 298 297 297 297 296 296 295 294 294 293 293 294 294 295 295 296 296 296 295 295 295 295 295 295 296 296 297 297 297 297 297 296 294 290 287 283 281 280 278 277 275 274 273 271 268 266 265 263 261 259 258 257 256 254 253 252 251 250 248 247 246 245 244
298 298 298 298 299 298 297 296 295 294 294 294 294 294 294 295 295 296 297 297 297 298 297 297 297 297 296 295 295 294 293 293 294 294 295 296 296 297 296 296 296 296 296 296 296 296 297 297 298 298 298 297 296 294 290 286 283 281 280 279 277 275 274 273 272 271 268 266 265 263 261 259 258 257 256 255 254 252 252 251 250 249 247 246 244
298 298 298 299 298 298 297 295 295 294 294 294 294 294 295 295 296 296 297 298 298 297 297 297 296 296 296 295 294 294 294 294 294 295 296 297 297 297 296 296 296 296 296 297 297 297 298 298 299 298 298 297 294 290 286 283 281 280 279 277 276 274 273 272 271 271 268 265 264 263 261 259 258 257 256 255 254 253 252 251 251 251 250 248 246
298 298 299 299 298 298 296 295 295 294 294 294 294 295 295 296 296 297 298 298 298 297 297 296 296 296 295 294 294 294 294 295 295 296 297 297 297 297 296 296 296 297 297 297 298 298 299 299 299 298 297 294 290 285 282 281 280 279 277 276 274 272 271 271 270 269 267 264 263 262 261 260 259 258 257 256 255 254 253 252 251 251 251 250 248
298 299 299 299 299 297 296 295 295 295 295 295 295 296 296 297 297 298 298 298 297 297 296 296 295 295 295 294 294 294 295 295 296 297 297 297 297 296 296 297 297 297 297 298 298 299 299 299 298 297 294 290 285 282 280 279 278 277 276 274 272 271 270 270 269 268 266 264 263 263 263 261 260 259 258 257 256 255 255 254 252 251 251 251 250
299 300 300 299 298 297 296 296 296 295 295 295 296 296 297 298 298 298 298 297 297 297 296 295 295 295 294 294 294 295 295 296 297 297 297 296 296 297 297 297 297 297 298 298 299 299 299 299 297 295 290 285 281 280 279 278 277 276 274 272 270 270 269 269 268 267 266 265 264 263 263 262 261 259 259 258 257 256 255 254 254 253 252 251 251
300 300 300 299 298 298 297 296 296 295 296 297 297 298 298 299 299 298 298 297 297 296 296 295 295 295 295 295 295 296 296 297 297 297 296 296 297 297 297 297 298 298 298 299 299 299 299 297 295 290 285 281 279 279 278 277 276 274 272 270 269 268 268 267 266 265 265 265 265 264 263 262 261 260 259 259 258 257 256 255 254 254 253 252 252
301 301 300 299 299 298 297 296 296 296 297 298 298 299 299 299 298 298 297 297 296 296 296 296 295 295 295 295 296 297 297 297 297 297 297 297 297 297 297 297 298 298 299 299 299 299 297 295 290 285 280 278 278 278 277 276 274 272 270 268 267 267 267 266 264 264 265 265 265 264 263 263 262 261 260 260 259 258 257 255 254 254 254 254 254
301 300 300 299 299 298 297 296 297 298 299 299 299 299 299 298 298 298 297 297 297 297 296 296 296 296 296 296 297 297 297 297 297 297 297 297 297 297 297 298 298 299 299 299 299 297 295 291 285 280 277 277 276 276 275 274 272 270 268 266 266 266 266 265 263 263 264 265 265 264 264 264 263 263 262 262 261 259 258 258 256 255 255 255 255
301 300 300 300 299 298 297 297 298 299 299 299 299 299 299 298 298 298 297 298 297 297 297 296 296 296 297 297 298 297 297 297 297 297 297 297 297 297 298 298 298 299 299 298 297 295 291 285 280 277 275 274 274 274 273 272 271 269 267 266 266 266 265 264 263 263 264 265 265 265 265 265 264 264 264 264 263 262 261 260 259 257 256 255 254
301 301 301 300 299 298 298 299 300 300 300 300 299 299 299 299 299 299 299 298 298 297 297 297 297 297 298 298 298 298 298 298 297 297 297 297 297 297 297 298 298 299 299 298 295 291 286 280 276 274 273 272 272 272 271 270 269 268 267 266 266 266 265 264 262 263 264 265 265 265 265 265 265 265 265 265 265 264 264 263 262 260 259 257 255
302 302 301 300 299 299 300 300 300 300 300 300 300 300 300 300 300 300 299 299 298 298 298 298 298 298 298 298 298 298 298 298 297 297 297 297 297 297 297 297 298 298 297 296 292 287 282 276 273 271 270 270 270 270 270 269 268 268 267 267 266 266 265 264 263 263 264 264 264 265 265 265 265 266 266 265 265 265 265 265 264 262 261 260 258
303 302 301 301 300 301 301 301 301 301 301 300 300 300 301 301 301 300 300 300 299 299 299 299 299 299 298 299 298 298 298 297 297 297 297 297 297 297 297 297 297 297 296 292 287 282 278 274 270 269 269 268 268 268 268 268 267 267 267 267 267 266 265 264 264 264 264 264 264 265 265 265 265 265 264 265 265 265 265 265 265 264 263 262 261
303 302 302 301 302 302 302 301 301 301 301 301 301 302 302 301 301 301 300 300 300 300 300 299 299 299 299 299 299 298 298 297 297 297 297 297 297 296 296 297 298 297 295 290 284 278 273 270 268 268 267 268 268 268 268 267 267 268 268 268 267 266 265 265 265 265 265 265 264 264 264 265 265 265 265 266 267 267 267 266 267 268 267 267 265
303 302 303 302 302 302 302 302 302 301 302 302 303 303 302 302 301 301 301 301 301 301 300 300 300 300 300 299 298 298 298 297 297 297 297 296 296 295 296 297 297 296 293 288 282 276 270 266 265 265 265 266 267 267 269 269 268 269 269 268 268 267 266 265 264 264 265 265 265 264 263 264 265 265 265 266 266 266 266 267 268 268 268 268 267
303 303 303 303 303 303 303 302 302 303 303 303 303 303 302 302 302 302 302 302 302 302 302 302 301 300 299 299 298 298 298 298 297 297 296 296 295 295 296 296 296 294 290 285 280 274 269 265 263 263 263 264 264 265 267 268 270 270 270 269 269 268 268 266 264 263 264 265 266 266 266 266 266 266 266 265 265 265 265 266 267 267 266 266 266
304 304 304 303 303 303 303 303 304 304 304 303 303 303 303 303 303 303 303 304 304 304 303 303 302 300 299 299 299 299 298 298 297 296 295 295 295 295 295 295 294 291 288 283 278 272 267 265 264 263 263 264 265 264 265 267 269 270 270 270 270 269 269 267 265 265 265 266 267 268 268 269 269 268 267 267 267 267 267 266 266 266 267 267 267
305 304 304 304 304 304 304 304 304 304 304 303 303 303 303 304 304 305 305 306 306 305 304 303 302 300 300 299 299 299 298 297 296 295 295 295 295 295 295 294 292 289 285 280 275 270 266 265 265 265 265 265 265 265 266 268 269 269 269 269 268 269 268 266 265 266 267 268 268 269 269 269 268 268 269 269 269 270 269 268 267 268 269 269 269
305 305 305 304 305 305 305 305 305 304 304 304 304 304 304 305 306 307 307 308 307 306 305 303 302 301 300 300 300 299 298 296 295 295 295 295 295 295 294 292 291 287 282 278 273 268 266 266 266 267 266 266 267 267 268 268 269 269 268 268 269 269 267 265 265 267 268 268 268 268 268 268 269 269 270 270 269 269 269 269 269 270 270 271 271
305 305 305 305 306 306 305 305 305 305 305 305 305 305 306 307 308 309 309 309 308 306 305 304 302 302 301 301 300 299 298 296 295 295 295 295 294 293 293 292 290 285 280 276 272 268 267 266 267 267 267 267 268 268 269 269 270 269 269 270 270 269 266 265 266 266 266 267 268 268 269 269 269 269 269 269 268 268 269 270 270 271 271 271 271
306 306 306 306 306 306 305 305 305 305 305 305 305 306 307 308 309 310 310 309 308 306 305 304 303 302 302 301 300 299 297 296 296 296 296 295 293 292 292 292 289 284 279 275 271 269 267 266 267 267 268 268 268 268 268 269 270 270 271 271 270 268 266 266 266 266 266 267 267 268 269 268 268 268 268 268 268 268 269 270 270 271 271 272 272
307 307 307 307 307 306 306 306 306 306 306 306 306 308 309 310 310 311 310 309 308 307 306 305 304 304 303 302 300 299 298 297 297 296 295 294 293 292 292 291 287 283 279 275 272 269 268 268 268 268 268 269 269 269 269 269 270 271 271 271 269 268 268 268 268 268 267 267 266 266 267 267 268 268 269 269 269 269 269 270 270 271 272 273 273
308 308 308 307 307 307 307 308 307 307 306 307 308 309 310 311 311 311 311 310 308 307 306 306 306 305 303 302 301 299 299 298 298 296 294 293 293 292 292 290 287 283 280 277 274 272 270 270 270 269 269 269 270 270 270 271 271 272 272 271 269 269 269 269 269 267 267 266 266 266 267 267 268 268 269 269 269 269 270 271 272 272 273 273 273
309 309 308 308 308 309 309 309 308 307 307 308 309 310 311 312 312 312 311 310 309 308 308 308 307 306 305 303 302 301 300 299 298 296 295 294 294 293 292 289 287 285 283 280 277 275 274 273 272 271 271 271 271 271 272 272 273 272 272 271 270 270 269 269 268 268 268 267 267 267 267 266 267 267 268 268 269 269 271 272 272 273 273 273 273
310 309 309 310 310 310 310 309 309 309 309 309 311 312 313 313 313 312 311 310 310 309 309 309 309 308 306 305 304 303 302 301 299 298 297 297 296 294 292 290 288 287 286 284 281 279 277 276 275 274 274 273 273 274 274 274 274 273 272 271 270 270 270 270 270 270 270 270 269 268 267 266 266 266 266 267 268 269 270 271 272 273 273 273 273
311 311 311 311 311 311 311 311 310 310 310 311 312 313 314 314 313 311 310 310 311 311 310 310 310 309 309 308 307 305 304 303 301 299 299 299 298 295 293 292 291 290 289 287 284 282 281 280 279 278 277 276 275 275 274 274 273 273 272 272 271 271 272 272 272 272 272 271 271 270 269 268 267 267 267 268 268 269 269 270 270 271 272 272 273
312 312 312 312 312 312 312 312 312 312 312 313 314 315 315 314 312 311 311 311 311 311 310 310 310 309 310 310 308 307 306 304 301 300 301 300 298 297 296 294 293 292 291 289 287 286 285 284 283 282 280 279 277 275 274 273 273 272 272 273 273 273 274 273 273 273 273 272 271 271 270 269 269 269 269 269 270 270 270 270 270 271 271 271 271
313 313 313 313 313 313 313 313 313 313 314 315 315 316 315 313 311 311 311 312 312 311 310 309 309 309 311 310 308 308 307 304 302 302 302 301 299 298 297 295 294 293 292 291 290 290 289 288 286 285 283 281 279 277 276 275 274 273 273 274 274 274 274 274 274 273 273 272 271 271 270 270 270 270 270 270 270 270 271 271 271 271 271 270 270
314 314 314 314 314 315 315 315 315 315 315 316 317 316 315 312 311 311 311 312 312 311 309 309 308 308 310 309 308 307 306 304 302 302 302 300 299 299 298 296 295 294 293 292 292 291 290 289 287 285 284 282 281 280 280 279 278 277 276 275 275 275 275 275 274 274 273 272 272 271 271 271 271 271 271 271 271 271 271 271 271 271 271 270 270
315 315 315 315 316 316 316 316 316 316 317 317 317 316 313 310 310 311 311 311 311 310 309 308 307 308 309 308 307 307 307 305 304 303 302 301 300 300 299 298 298 297 296 295 295 294 293 290 288 286 285 284 283 282 281 280 279 278 277 276 275 275 275 275 275 274 273 272 272 272 272 272 271 271 271 271 271 271 271 271 271 271 271 271 270
316 316 317 317 317 317 317 317 317 317 318 318 318 315 311 309 310 311 311 311 310 309 309 308 307 307 307 307 306 306 307 306 304 303 302 302 302 302 301 300 299 298 297 296 296 296 294 292 290 289 288 287 285 284 282 281 280 279 278 276 276 275 275 274 274 273 273 273 273 273 273 272 272 271 271 271 271 271 271 271 271 271 270 270 270
317 318 318 318 318 318 318 318 318 318 319 319 317 313 308 308 310 311 311 311 310 309 308 307 307 307 307 307 306 306 306 305 303 301 300 300 301 302 302 301 301 299 297 296 296 295 293 291 290 289 287 286 285 284 283 283 282 281 279 278 278 277 276 275 275 274 274 274 274 273 273 273 272 272 271 271 271 271 271 270 270 270 269 269 269
319 319 319 319 319 319 319 320 320 319 319 319 316 310 307 308 310 311 311 311 310 309 308 307 307 308 308 307 308 308 309 307 305 303 302 301 301 301 301 301 301 299 298 298 297 296 294 293 291 289 287 286 285 284 283 282 281 280 280 279 278 277 277 276 276 275 275 274 273 273 273 272 272 272 271 271 270 270 269 269 269 268 268 268 268
320 319 320 320 320 321 321 321 321 320 320 319 314 308 306 308 310 310 311 310 309 309 308 308 308 308 308 308 309 309 309 308 307 306 304 303 303 302 302 302 301 300 299 299 298 297 296 295 294 292 290 288 286 285 283 282 280 279 279 278 277 276 276 275 275 275 274 274 273 273 272 272 272 271 271 270 269 269 269 268 267 267 267 267 268
320 320 320 321 322 323 323 323 322 321 321 318 313 306 306 308 310 310 311 310 309 308 307 307 308 308 308 308 309 309 309 308 307 307 306 305 305 305 305 304 303 302 301 300 300 299 297 296 295 293 292 290 288 287 285 283 281 280 279 277 277 276 275 274 274 273 273 273 273 273 272 272 272 272 271 270 270 269 269 268 267 267 266 266 266
321 321 321 322 324 325 325 324 323 322 321 318 311 305 305 308 309 310 310 310 309 307 306 306 306 307 307 308 308 308 308 307 307 306 306 306 306 306 306 306 305 304 303 301 300 300 299 297 296 294 292 291 289 287 286 284 283 281 279 278 277 276 275 274 273 273 272 272 272 272 271 271 271 271 271 271 270 270 269 268 267 266 266 265 265
321 322 322 324 326 327 327 326 324 323 322 317 309 303 304 307 309 309 310 309 308 308 306 306 306 306 306 307 307 307 307 307 307 307 307 307 307 307 307 306 305 305 304 302 301 300 299 298 296 295 293 291 289 288 286 284 283 281 280 279 278 276 275 274 273 273 272 272 271 271 270 270 270 270 270 270 270 270 269 267 266 265 264 264 263
322 322 323 325 327 328 328 327 325 324 322 317 308 303 304 306 308 309 309 309 308 308 307 307 306 306 306 307 307 307 307 308 308 308 308 309 308 308 307 307 306 305 304 303 302 301 300 298 297 295 293 291 290 288 286 285 283 281 280 279 278 277 276 275 274 273 272 271 271 270 270 269 269 269 269 269 269 268 267 266 265 263 263 262 262
323 323 324 325 327 329 329 327 326 324 322 317 307 302 303 305 307 308 308 308 308 308 307 307 306 306 306 306 307 307 308 309 309 309 309 309 309 309 308 308 307 307 306 305 304 303 301 299 298 296 294 292 290 288 286 285 283 281 280 279 277 276 275 274 274 273 272 271 270 270 269 268 268 267 267 267 267 267 265 264 263 262 261 260 260
323 323 324 326 327 328 329 328 326 325 322 316 307 301 302 304 306 307 308 308 307 307 307 307 307 307 307 307 307 308 309 310 310 310 310 310 310 309 309 309 308 307 307 306 305 303 302 300 298 296 294 293 291 289 287 285 283 282 280 278 277 275 274 273 272 271 271 270 269 268 268 267 266 266 265 265 264 264 263 262 260 259 258 257 257
324 324 325 326 327 328 329 328 326 325 322 316 306 300 300 303 304 306 307 307 307 307 307 307 307 308 308 308 309 310 311 311 311 311 311 311 310 310 310 309 309 308 308 306 305 303 302 300 298 297 295 293 291 289 287 286 284 282 280 279 277 275 274 273 271 270 269 268 267 267 266 265 265 264 263 262 261 260 259 258 257 256 255 254 254
325 325 325 326 327 328 329 328 327 325 322 316 306 300 299 301 303 305 306 306 307 307 308 308 309 309 310 311 311 312 313 313 313 313 312 312 312 312 311 311 311 310 309 308 306 305 303 301 300 298 296 294 292 290 288 286 284 282 281 279 277 275 274 272 271 270 268 267 266 265 264 263 262 261 260 259 258 257 255 254 253 252 251 251 251
326 326 326 327 328 329 329 328 327 325 322 316 306 299 298 300 303 304 306 307 307 308 309 309 310 311 312 313 314 314 315 315 314 314 314 314 314 314 314 314 314 313 311 310 308 307 305 303 302 300 298 295 293 291 288 286 284 282 280 278 277 275 273 272 270 269 268 266 265 263 262 261 260 258 257 256 254 252 250 249 248 247 247 247 248
327 327 327 328 328 329 329 329 327 325 322 316 307 300 298 300 302 304 306 307 309 309 310 311 312 314 315 315 316 316 316 316 316 316 316 317 317 317 317 317 316 315 313 312 310 309 307 305 303 301 299 297 294 292 289 287 285 282 280 278 276 274 272 270 269 267 266 265 263 262 260 258 257 255 253 251 249 246 244 243 242 242 243 243 244
328 328 328 329 330 330 330 329 327 325 322 316 307 301 300 301 303 305 307 309 310 311 312 314 315 316 317 317 317 318 318 318 318 318 319 319 320 320 320 319 318 317 315 314 312 311 309 307 305 303 301 298 296 293 290 287 285 282 280 278 276 274 271 269 267 265 264 262 261 259 257 256 254 252 249 247 244 241 238 237 237 237 238 239 240
329 329 329 330 331 331 330 329 328 326 322 315 308 303 302 304 306 308 310 311 312 313 315 316 317 318 318 319 319 320 320 321 321 321 322 322 323 323 322 321 320 318 317 316 315 313 311 309 307 305 303 300 297 294 291 289 286 283 281 278 276 273 270 268 265 263 261 259 257 256 254 252 250 247 244 241 238 234 232 231 231 232 233 234 235
330 330 330 331 332 332 331 330 328 326 322 315 309 305 306 308 310 311 312 313 314 315 317 318 319 320 320 321 322 323 323 323 324 324 325 325 325 325 324 323 322 320 319 318 317 315 314 312 310 307 304 302 299 296 293 290 287 283 280 277 274 271 268 265 263 260 258 255 253 251 249 247 244 241 237 234 230 227 225 224 225 226 227 228 230
330 331 332 332 333 333 332 331 329 326 322 315 310 308 309 311 313 314 315 315 316 318 319 320 321 322 324 325 325 326 326 326 326 327 327 327 327 326 325 324 323 322 321 320 319 318 316 314 312 309 306 303 300 297 294 291 287 284 280 277 273 270 266 263 259 256 253 251 248 246 243 239 236 232 228 225 221 219 218 218 219 220 221 223 226
331 332 332 333 334 334 333 331 330 326 321 315 312 311 313 314 315 316 317 318 319 320 322 323 324 325 327 328 328 328 328 328 329 329 329 329 329 328 327 326 325 324 324 323 322 320 319 316 314 311 308 305 302 299 295 292 288 284 280 276 272 267 263 258 255 251 247 244 241 237 234 230 226 221 218 215 212 211 210 211 212 213 215 219 221
332 332 333 334 335 335 334 333 330 327 321 316 313 314 315 317 318 319 319 320 322 323 324 325 327 328 329 330 330 330 330 330 331 331 331 331 330 330 329 328 327 327 327 326 325 323 321 319 316 314 311 308 305 302 298 294 290 285 280 275 269 264 258 253 247 242 237 233 230 227 222 218 214 210 207 205 203 202 203 204 205 207 211 213 213
332 333 334 335 335 336 335 333 331 327 321 316 316 317 318 319 320 321 322 322 323 324 326 327 328 330 331 332 332 332 332 332 333 333 333 332 332 331 331 330 330 330 329 328 327 326 324 322 320 318 316 313 310 306 302 297 292 285 279 272 265 258 250 242 234 228 223 220 216 212 208 205 201 199 196 194 194 195 195 196 199 202 204 204 202